Hourly Weather Roundup
Issued by NWS Central Illinois

Home | Current Version | Previous Version | Text Only | Print | Product List | Glossary On
Versions: 1 2 3 4 5 6 7 8 9 10 11 12 13 14 15 16 17 18 19 20 21 22 23 24 25 26 27 28 29 30 31 32 33 34 35 36 37 38 39 40 41 42 43 44 45 46 47 48 49 50
000
NZUS43 KILX 201611
HWRILX

Area Weather Roundup
National Weather Service Lincoln IL
1000 AM CST MON NOV 20 2017

NOTE:  "FAIR" indicates few or no clouds below 12,000 feet, with
       no sigificant weather and/or obstructions to visibility.


CITY           SKY/WX    TMP DP  RH WIND       PRES   REMARKS
Bloomington    CLOUDY    42  28  57 SW22G29   29.98F WCI  33
Champaign      SUNNY     41  30  65 S21G29    30.05F WCI  32
Danville       SUNNY     40  27  59 S20G25    30.04F WCI  31
Decatur        SUNNY     43  28  55 S22       30.06F WCI  34
Effingham      SUNNY     43  28  55 SE10G17   30.14F
Flora          SUNNY     44  30  59 S10       30.19S
Galesburg      SUNNY     47  33  56 S23G29    29.90F
Jacksonville   SUNNY     46  29  50 S18G26    30.01F
Lacon          CLOUDY    44  28  54 SW17G23   29.93F
Lawrenceville  SUNNY     41  30  65 S13       30.19F WCI  34
Litchfield     SUNNY     41  30  63 S12       30.09S WCI  35
$$


CITY           SKY/WX    TMP DP  RH WIND       PRES   REMARKS
Lincoln        SUNNY     43  31  61 S15       30.01F
Macomb         SUNNY     48  31  50 SW23G30   29.94F
Mattoon        SUNNY     40  28  62 S14G21    30.09F WCI  32
Mt Carmel AP   SUNNY     42  28  57 S13       30.18F WCI  35
Olney-Noble AP SUNNY     41  23  49 S14       30.16F WCI  33
Paris AP       SUNNY     40  29  63 S18       30.12F WCI  31
Peoria         CLOUDY    42  30  62 S13       29.96F
Pontiac        SUNNY     43  31  62 S20G25    29.97F WCI  34
Rantoul        SUNNY     43  31  62 S18G24    30.03F
Robinson       SUNNY     41  28  58 S12G17    30.17F WCI  34
Springfield    SUNNY     46  29  51 S20G26    30.03F
Taylorville    SUNNY     42  29  59 S16G23    30.07F WCI  34
$$

...REGIONAL REPORTS...


CITY           SKY/WX    TMP DP  RH WIND       PRES   REMARKS
Chicago O`Hare MOSUNNY   43  27  53 SW18G24   29.89F WCI  35
Kankakee       SUNNY     41  28  60 SW16G26   29.98F WCI  33
Moline         SUNNY     46  29  51 SW15G23   29.85F
Mount Sterling SUNNY     50  29  43 S16G25    29.96F
Mount Vernon   SUNNY     44  29  55 SW20      30.15F
Pittsfield     SUNNY     48  30  50 S17G25    30.00F
Quincy         SUNNY     48  30  49 SW20G28   29.95F
Rockford       PTSUNNY   42  29  59 SW17      29.87F WCI  34
$$


CITY           SKY/WX    TMP DP  RH WIND       PRES   REMARKS
Burlington     SUNNY     48  33  56 S21G28    29.88F
Cedar Rapids   SUNNY     47  31  53 S16       29.77F
Des Moines     PTSUNNY   50  27  40 SW16G24   29.74F
Kirksville     SUNNY     51  31  46 SW18G24   29.90F
Ottumwa        SUNNY     51  29  42 SW18G25   29.81F
St Louis       PTSUNNY   52  25  35 SW14      30.08F
$$


CITY           SKY/WX    TMP DP  RH WIND       PRES   REMARKS
Terre Haute    SUNNY     42  25  50 S12       30.16F
Evansville     SUNNY     42  26  53 S9        30.23F
Indianapolis   PTSUNNY   40  24  53 S15       30.14F WCI  32
Lafayette      CLOUDY    40  27  59 S9G20     30.06F WCI  34
Madison        PTSUNNY   39  29  67 S10G20    29.79F WCI  32
Milwaukee      PTSUNNY   42  28  57 SW15      29.84S WCI  34
$$






USA.gov is the U.S. government's official web portal to all federal, state and local government web resources and services.